Regional Weather Roundup
Issued by NWS Wakefield, VA

Current Version | Previous Version | Text Only | Print | Product List | Glossary Off
Versions: 1 2 3 4 5 6 7 8 9 10 11 12 13 14 15 16 17 18 19 20 21 22 23 24 25 26 27 28 29 30 31 32 33 34 35 36 37 38 39 40 41 42 43 44 45 46 47 48 49 50

000
ASUS41 KAKQ 301810
RWRAKQ

REGIONAL WEATHER ROUNDUP
NATIONAL WEATHER SERVICE WAKEFIELD VA
100 PM EST FRI JAN 30 2015

Note: "fair" indicates few or no clouds below 12,000 feet with no
significant weather and/or obstructions to visibility. * = Denotes
station may not report precipitation (e.g., rain,snow,etc.),
thunder or fog.

VAZ042-051-052>054-056-301900-
NORTHERN VIRGINIA

CITY           SKY/WX    TMP DP  RH WIND       PRES   REMARKS
WASH NATIONAL  MOSUNNY   43  13  29 NW15G28   30.04F
DULLES         MOSUNNY   36  14  40 NW29G40   30.04F WCI  23
FORT BELVOIR   PTSUNNY   40  12  32 NW24G37   30.06S
QUANTICO       PTSUNNY   40  17  39 NW29G43   30.08R
FREDERICKSBRG* PTSUNNY   40  18  40 NW15G29   30.05S
STAFFORD*      CLOUDY    37  19  47 NW22G28   30.10R
WARRENTON      CLOUDY    39  24  54 NW22G33   30.06S
CULPEPER*      PTSUNNY   39  18  41 NW17      30.07S
MANASSAS*      CLOUDY    37  18  44 NW17G30   30.07S
LEESBURG*      MOSUNNY   37  19  48 NW21G31   30.06S
WINCHESTER     MOSUNNY   34  14  44 NW20G32   30.07F WCI  22
FRONT ROYAL*   MOCLDY    34  18  51 NW12G22   30.08S
LURAY*         CLOUDY    36  16  44 W13G28    30.09R
$$

VAZ048-049-060>072-079>083-301900-
CENTRAL AND SOUTH CENTRAL VIRGINIA

CITY           SKY/WX    TMP DP  RH WIND       PRES   REMARKS
RICHMOND       PTSUNNY   44  25  47 N16G24    30.03S
CHESTERFIELD*  CLOUDY    43  18  36 N14G25    30.04F
PETERSBURG*    CLOUDY    46  20  35 W16       30.03F
HANOVER        CLOUDY    43  20  39 NW15G28   30.04F
TAPPAHANNOCK*  PTSUNNY   42  20  41 NW17G31   30.03F
QUINTON*       CLOUDY    40  26  56 NW13G22   30.03S
CHARLOTTSVILLE PTSUNNY   41  14  33 NW10G24   30.06R
GORDONSVILLE*  CLOUDY    39  15  38 NW9G23    30.05S
ORANGE*        CLOUDY    41  19  42 NW15G22   30.08R
LOUISA*        PTSUNNY   45  18  33 NW18G25   30.03S
BUMPASS*       CLOUDY    40  16  37 NW9G18    30.04S
FARMVILLE*     CLOUDY    47  15  28 W8G17     30.03F
CREWE*         CLOUDY    45  14  28 NW8G18    30.03F
FORT PICKETT*  MOCLDY    43  16  33 NW15G21   30.03F
CHASE CITY*    FAIR      47  19  33 W15G24    30.05F
CLARKSVILLE*   MOCLDY    43  18  36 NW14G23   30.06F
SOUTH HILL*    PTSUNNY   46  16  30 NW13G21   30.10F
LAWRENCEVILLE* CLOUDY    47  19  33 NW8G18    30.04S
EMPORIA*       CLOUDY    45  21  39 W13G21    30.05F
$$

VAZ088>098-301900-
SOUTHEAST VIRGINIA

CITY           SKY/WX    TMP DP  RH WIND       PRES   REMARKS
NORFOLK        CLOUDY    45  24  43 N10       29.99F
VIRGINIA BEACH PTSUNNY   45  27  49 NW15      29.99F
NORFOLK NAVAL  CLOUDY    47  22  37 NW17G29   30.01F
WEST POINT*    CLOUDY    46  18  33 W17G26    30.03F
SALUDA*        CLOUDY    38  27  64 NW17G28   30.02R
NEWPORT NEWS   CLOUDY    46  22  38 N18G25    30.01S
LANGLEY AFB    MIX PCPN  43  23  45 NW18G29   30.00S
FORT EUSTIS    PTSUNNY   44  27  51 N15G24    29.99F
WILLIAMSBURG*    N/A     45  27  49 N10G18    30.02S
HR EXEC AP*    CLOUDY    43  25  49 N10       30.03F
FRANKLIN*      CLOUDY    42  25  50 NW7       30.03F
WAKEFIELD      CLOUDY    44  22  41 NW10G18   30.02F
$$

VAZ020-022-025-037-045-301900-
WEST CENTRAL AND SOUTHWEST VIRGINIA

CITY           SKY/WX    TMP DP  RH WIND       PRES   REMARKS
STAUNTON*      PTSUNNY   35  10  35 NW21G26   30.09R WCI  24
WAYNESBORO*    FAIR      35  11  36 NW15G30   30.05R
HOT SPRINGS VA LGT SNOW  20  10  65 NW23G41   29.93S WCI   3
LYNCHBURG      CLOUDY    41  15  35 W15G26    30.08S
DANVILLE       CLOUDY    47  19  33 NW13G24   30.10F
SOUTH BOSTON*  MOCLDY    44  15  31 NW13G28   30.08F
MARTINSVILLE   MOSUNNY   43  19  38 NW23G35   30.13F
ROANOKE        CLOUDY    36  15  42 NW21G26   30.15S WCI  25
BLACKSBURG     CLOUDY    29  17  60 NW17G30   30.14S WCI  17
DUBLIN*        CLOUDY    33  19  56 NW21G36   30.13F WCI  21
MARION*        FLURRIES  31  20  63 W25G32    30.17R WCI  18
HILLSVILLE*    CLOUDY    29  17  59 NW28G43   30.09S WCI  14
RICHLANDS*     CLOUDY    26  19  74 NW16G24   30.20S WCI  13
WISE*          CLOUDY    28  21  74 NW12G22   30.25R WCI  18
ABINGDON*      CLOUDY    34  20  55 NW16G29   30.24S WCI  24
$$

MDZ021>025-VAZ099-100-301900-
SOUTHERN MARYLAND AND THE DELMARVA PENINSULA

CITY           SKY/WX    TMP DP  RH WIND       PRES   REMARKS
PATUXENT RIVER PTSUNNY   36  23  59 NW21G37   30.01S WCI  25
BAY BRIDGE APT   N/A     37  21  52 W23G32    29.99S
LEONARDTOWN    CLOUDY    36  21  55 W16G31    30.03S
DOVER          CLOUDY    40  22  48 NW17G29   29.93S
GEORGETOWN     CLOUDY    42  20  41 NW14G29   29.93F
EASTON         MOSUNNY   45  25  45 NW23G31   30.00S
CAMBRIDGE      MOSUNNY   43  23  45 NW21G33   29.97S
SALISBURY      PTSUNNY   45  16  31 NW22G30   29.93F
OCEAN CITY     CLOUDY    43  21  41 NW17G24   29.92F
WALLOPS ISLAND PTSUNNY   42  19  39 NW23G37   29.94F
ACCOMACK*      PTSUNNY   41  27  56 NW20G31   29.98S
$$

NCZ012>017-030>032-301900-
NORTH CENTRAL AND EASTERN NORTH CAROLINA

CITY           SKY/WX    TMP DP  RH WIND       PRES   REMARKS
ROANOKE RAPIDS MOCLDY    46  19  34 NW14G23   30.05F
RALEIGH        MOSUNNY   46  20  35 NW14G25   30.09F
ELIZABETH CITY CLOUDY    42  28  57 NW17      30.01F
AHOSKIE*       CLOUDY    44  23  43 NW7       30.03F
EDENTON*       CLOUDY    44  32  63 N10       30.02F
CURRITUCK*     CLOUDY    43  24  47 N10G17    30.01S
KILL DEVIL HLS CLOUDY    42  30  61 N12G21    29.98F
MANTEO         CLOUDY    43  32  65 NW10G17   30.00S
CAPE HATTERAS  CLOUDY    42  36  79 VRB7      29.99S
TARBORO*       MOCLDY    48  20  33 NW17G23   30.06S
GOLDSBORO      MOSUNNY   47  25  42 NW16G25   30.07S
WASHINGTON     PTSUNNY   46  25  43 NW12G18   30.03F
GREENVILLE     PTSUNNY   46  23  39 N13G23    30.06F
NEW BERN       CLOUDY    50  25  37 NW14G23   30.04S
WILMINGTON     SUNNY     51  27  39 NW21G30   30.06S
$$

VAZ048-301900-
ELSEWHERE

CITY           SKY/WX    TMP DP  RH WIND       PRES   REMARKS
HARRISBURG PA  CLOUDY    32  21  64 NW26G32   29.99S WCI  18
BALTIMORE      PTSUNNY   37  18  44 NW21G30   30.00
ANNAPOLIS      CLOUDY    39  19  44 NW16G23   29.99F
ANDREWS AFB    PTSUNNY   39  16  39 NW26G35   30.01S
PHILADELPHIA   PTSUNNY   40  19  43 NW21G29   29.91F
HENDERSON NC   MOSUNNY   45  12  26 NW16G29   30.07F
GREENSBORO     MOSUNNY   46  13  26 NW20G33   30.10F
ROCKY MOUNT    MOSUNNY   49  19  30 NW16G26   30.06F
$$

VAZ100-301900-
MARINE

STATION/POSITION TIME  TEMP    WIND        PRES    WAVE   SWELL
                       AIR SEA DIR/SP/G            HT/PER HT/PER
                 (UTC) (F)     (DEG/KT/KT) (MB)    (FT/S) (FT/S)
BRANDYWINE LGT   1800   37 37  350/ 21/ 25 1013.0F
CAPE MAY NJ      1800   38 37              1012.6F
LEWES DE         1800   37 36  340/ 18/ 21 1012.9F
15NM E FENWICK I 1800   38 40              1012.1F   5/ 5
OCEAN-CITY-INLET 1800   41 37  330/ 18/ 21 1012.6S
WACHAPREAGUE VA  1800   43 37  300/  6/ 24 1014.7F
THOMAS POINT MD  1800   38 36  310/ 21/ 23 1016.3R
GOOSES REEF MD   1800   38     VRB 23/ 29  1014.6S
COVE POINT MD    1800   37     320/ 24/ 36 1015.6R
SOLOMONS ISLAND  1800      37                N/A
BISHOPS HEAD MD  1800   38 36  300/ 21/ 24   N/A
PINEY POINT MD   1800          350/ 30/ 34   N/A
POTOMAC MD       1800   39     340/ 21/ 31 1015.5S
CAMBRIDGE MD     1800   40 35  300/ 15/ 23 1014.8S
LEWISETTA VA     1800   38 37  350/ 17/ 22 1016.3R
RAPPAHANNOCK LGT 1800          340/ 18/ 20 1015.7F
STINGRAY PT      1800   40     320/ 23/ 29 1016.1S
YORK RVR RNG VA  1800   41     360/ 21/ 24 1014.9F
YORKTOWN VA      1800   41 39  310/ 19/ 24 1015.7F
JAMESTOWN VA     1800   41     350/ 16/ 19   N/A
DOMINION TERM VA 1800   42     320/ 15/ 19 1015.9S
KIPTOPEKE VA     1800      44  330/ 21/ 23   N/A
CHES BAY BRIDGE  1800   41 40  320/ 19/ 24 1015.2F
CAPE HENRY VA    1800   41     330/ 19/ 25 1014.2F
CHESAPEAKE LGHT  1700   40     340/ 21/ 23 1015.8F
WILLOUBY STN VA  1800   43     340/ 24/ 26 1016.3S
S CRANEY ISL VA  1800          300/ 10/ 14 1015.8S
CAPE HENRY BUOY  1800      42                N/A     3/ 4
1ST LANDING BUOY 1800   42     340/ 17/ 23 1015.2F
CAPE CHARLES BUO 1800      41                N/A     3/10   2/10
OFFSHORE WE BUOY 1800      43                N/A     5/ 5   2/10
64NM E OF VA BCH 1800   42 49  340/ 25/ 29 1013.0F   6/ 6   2/10
DUCK PIER NC     1800   42 44  340/ 18/ 23 1014.6F
44100 DUCK FRF   1800      45                N/A     4/ 5
44056 DUCK FRF   1800      44                N/A     3/ 4
OREGON INLET NC  1800   42 42  340/ 15/ 22 1015.4S
HATTERAS NC      1800   42 46  350/ 16/ 19 1015.9S


USA.gov is the U.S. government's official web portal to all federal, state and local government web resources and services.